Voltar ao catálogo

STARLINK-30946

AtivoComunicaçõesVLEO
NORAD 58450·PAYLOAD·🇺🇸 United States

Lançado Nov 28, 2023 de Cape Canaveral Space Force Station

Loading…

Próximas Passagens (próximas 24 horas)

TLE

AtualizadoSource: CelesTrak SupGP

Época: Sep 15, 2026, 02:07 UTC

1 58450C 23183P   26258.08868056 -.00100240  00000+0 -36302-2 0  2585
2 58450  43.0014  51.9782 0001715 266.6702 344.7718 15.27632766    11

Acompanhe STARLINK-30946 em tempo real com AllMySat

Download on the App Store